H1 CPF 2 NER 2024 10 4 9 278 01 glonass134 H2 1407501 9134 40315 2024 10 4 0 0 0 2024 10 7 23 45 0 900 1 1 0 0 0 1 H9 10 0 60587 0.00000 0 -24262486.104 -8008294.860 -398872.342 10 0 60587 900.00000 0 -24153346.538 -7872765.123 2776654.232 10 0 60587 1800.00000 0 -23657883.295 -7658541.248 5898536.153 10 0 60587 2700.00000 0 -22776832.885 -7419603.422 8906476.597 10 0 60587 3600.00000 0 -21523740.639 -7209349.450 11742383.650 10 0 60587 4500.00000 0 -19924520.910 -7078137.749 14351474.210 10 0 60587 5400.00000 0 -18016522.385 -7070966.394 16683315.513 10 0 60587 6300.00000 0 -15847136.278 -7225384.714 18692785.760 10 0 60587 7200.00000 0 -13472003.597 -7569724.472 20340936.662 10 0 60587 8100.00000 0 -10952893.863 -8121724.684 21595742.401 10 0 60587 9000.00000 0 -8355340.902 -8887608.309 22432721.280 10 0 60587 9900.00000 0 -5746131.406 -9861650.776 22835418.256 10 0 60587 10800.00000 0 -3190748.126 -11026260.450 22795738.732 10 0 60587 11700.00000 0 -750871.819 -12352570.269 22314126.219 10 0 60587 12600.00000 0 1517955.714 -13801518.780 21399578.972 10 0 60587 13500.00000 0 3568411.222 -15325378.434 20069503.326 10 0 60587 14400.00000 0 5363125.807 -16869670.090 18349404.303 10 0 60587 15300.00000 0 6876004.104 -18375385.921 16272417.105 10 0 60587 16200.00000 0 8093070.802 -19781429.229 13878686.222 10 0 60587 17100.00000 0 9012807.865 -21027169.547 11214602.194 10 0 60587 18000.00000 0 9645967.056 -22055005.445 8331909.328 10 0 60587 18900.00000 0 10014864.645 -22812826.076 5286700.850 10 0 60587 19800.00000 0 10152187.480 -23256265.874 2138320.894 10 0 60587 20700.00000 0 10099360.892 -23350654.829 -1051804.593 10 0 60587 21600.00000 0 9904548.272 -23072579.368 -4221383.899 10 0 60587 22500.00000 0 9620368.546 -22410985.293 -7308496.924 10 0 60587 23400.00000 0 9301430.425 -21367773.958 -10252827.381 10 0 60587 24300.00000 0 9001790.501 -19957864.901 -12996863.349 10 0 60587 25200.00000 0 8772445.738 -18208721.378 -15487040.369 10 0 60587 26100.00000 0 8658969.247 -16159358.739 -17674802.737 10 0 60587 27000.00000 0 8699391.745 -13858878.017 -19517560.744 10 0 60587 27900.00000 0 8922420.069 -11364587.499 -20979524.335 10 0 60587 28800.00000 0 9346068.995 -8739792.617 -22032396.663 10 0 60587 29700.00000 0 9976764.367 -6051348.203 -22655914.508 10 0 60587 30600.00000 0 10808954.846 -3367076.710 -22838226.058 10 0 60587 31500.00000 0 11825247.553 -753160.980 -22576100.187 10 0 60587 32400.00000 0 12997060.404 1728379.663 -21874964.939 10 0 60587 33300.00000 0 14285762.063 4022025.552 -20748776.408 10 0 60587 34200.00000 0 15644250.002 6080809.253 -19219722.473 10 0 60587 35100.00000 0 17018899.029 7868001.397 -17317768.919 10 0 60587 36000.00000 0 18351797.580 9358362.413 -15080058.261 10 0 60587 36900.00000 0 19583177.457 10538911.235 -12550174.173 10 0 60587 37800.00000 0 20653935.200 11409182.369 -9777286.635 10 0 60587 38700.00000 0 21508139.954 11980963.925 -6815194.821 10 0 60587 39600.00000 0 22095423.693 12277530.605 -3721286.431 10 0 60587 40500.00000 0 22373154.939 12332406.260 -555433.324 10 0 60587 41400.00000 0 22308306.363 12187709.729 2621155.768 10 0 60587 42300.00000 0 21878939.432 11892154.456 5747104.138 10 0 60587 43200.00000 0 21075245.148 11498786.211 8762036.197 10 0 60587 44100.00000 0 19900098.098 11062553.638 11607725.575 10 0 60587 45000.00000 0 18369100.894 10637812.833 14229201.570 10 0 60587 45900.00000 0 16510116.718 10275869.661 16575794.177 10 0 60587 46800.00000 0 14362308.367 10022661.767 18602099.123 10 0 60587 47700.00000 0 11974722.109 9916676.540 20268845.628 10 0 60587 48600.00000 0 9404473.014 9987191.693 21543651.319 10 0 60587 49500.00000 0 6714604.519 10252912.163 22401650.455 10 0 60587 50400.00000 0 3971708.371 10721061.034 22825983.584 10 0 60587 51300.00000 0 1243400.997 11386963.922 22808138.850 10 0 60587 52200.00000 0 -1404241.418 12234146.209 22348137.507 10 0 60587 53100.00000 0 -3909184.549 13234941.570 21454558.562 10 0 60587 54000.00000 0 -6215771.648 14351589.094 20144400.183 10 0 60587 54900.00000 0 -8276796.817 15537775.833 18442778.284 10 0 60587 55800.00000 0 -10055229.333 16740562.584 16382465.736 10 0 60587 56700.00000 0 -11525516.361 17902613.988 14003278.806 10 0 60587 57600.00000 0 -12674408.484 18964640.399 11351320.661 10 0 60587 58500.00000 0 -13501272.088 19867948.959 8478095.087 10 0 60587 59400.00000 0 -14017874.269 20556995.667 5439506.737 10 0 60587 60300.00000 0 -14247648.404 20981829.215 2294767.192 10 0 60587 61200.00000 0 -14224471.009 21100321.093 -894771.236 10 0 60587 62100.00000 0 -13991001.896 20880085.024 -4066829.883 10 0 60587 63000.00000 0 -13596658.926 20300001.805 -7159440.732 10 0 60587 63900.00000 0 -13095314.873 19351282.444 -10112179.543 10 0 60587 64800.00000 0 -12542816.285 18038022.559 -12867368.611 10 0 60587 65700.00000 0 -11994432.039 16377223.129 -15371223.300 10 0 60587 66600.00000 0 -11502342.316 14398276.018 -17574917.916 10 0 60587 67500.00000 0 -11113276.663 12141936.003 -19435548.560 10 0 60587 68400.00000 0 -10866402.929 9658823.171 -20916973.274 10 0 60587 69300.00000 0 -10791557.474 7007519.723 -21990512.818 10 0 60587 70200.00000 0 -10907891.770 4252342.260 -22635498.858 10 0 60587 71100.00000 0 -11222992.083 1460883.926 -22839659.894 10 0 60587 72000.00000 0 -11732508.237 -1298569.923 -22599338.858 10 0 60587 72900.00000 0 -12420305.482 -3959644.434 -21919539.967 10 0 60587 73800.00000 0 -13259131.152 -6460388.187 -20813805.825 10 0 60587 74700.00000 0 -14211766.067 -8745592.782 -19303929.083 10 0 60587 75600.00000 0 -15232610.427 -10768824.322 -17419506.076 10 0 60587 76500.00000 0 -16269636.078 -12494084.717 -15197342.596 10 0 60587 77400.00000 0 -17266622.072 -13897036.519 -12680724.590 10 0 60587 78300.00000 0 -18165579.164 -14965743.524 -9918568.809 10 0 60587 79200.00000 0 -18909261.507 -15700899.512 -6964470.320 10 0 60587 80100.00000 0 -19443660.661 -16115538.700 -3875665.505 10 0 60587 81000.00000 0 -19720378.207 -16234242.746 -711930.371 10 0 60587 81900.00000 0 -19698778.641 -16091879.648 2465565.113 10 0 60587 82800.00000 0 -19347833.512 -15731928.833 5595425.332 10 0 60587 83700.00000 0 -18647580.691 -15204463.392 8617198.591 10 0 60587 84600.00000 0 -17590138.465 -14563874.111 11472526.724 10 0 60587 85500.00000 0 -16180232.384 -13866430.184 14106254.033 10 0 60588 0.00000 0 -14435212.759 -13167777.937 16467475.566 10 0 60588 900.00000 0 -12384560.120 -12520480.823 18510507.301 10 0 60588 1800.00000 0 -10068900.043 -11971703.457 20195757.786 10 0 60588 2700.00000 0 -7538563.033 -11561134.405 21490489.820 10 0 60588 3600.00000 0 -4851748.870 -11319235.069 22369454.992 10 0 60588 4500.00000 0 -2072367.870 -11265887.555 22815390.421 10 0 60588 5400.00000 0 732354.196 -11409498.863 22819367.610 10 0 60588 6300.00000 0 3494410.959 -11746600.188 22380985.790 10 0 60588 7200.00000 0 6147587.188 -12261960.079 21508404.608 10 0 60588 8100.00000 0 8629962.385 -12929209.011 20218213.612 10 0 60588 9000.00000 0 10886243.196 -13711951.747 18535138.819 10 0 60588 9900.00000 0 12869827.753 -14565323.195 16491589.645 10 0 60588 10800.00000 0 14544515.429 -15437924.462 14127052.649 10 0 60588 11700.00000 0 15885789.559 -16274059.039 11487341.762 10 0 60588 12600.00000 0 16881618.017 -17016175.518 8623718.001 10 0 60588 13500.00000 0 17532736.640 -17607413.460 5591894.844 10 0 60588 14400.00000 0 17852402.315 -17994143.671 2450948.392 10 0 60588 15300.00000 0 17865625.349 -18128393.509 -737845.838 10 0 60588 16200.00000 0 17607913.327 -17970052.004 -3912225.527 10 0 60588 17100.00000 0 17123580.142 -17488758.664 -7010178.077 10 0 60588 18000.00000 0 16463693.009 -16665393.152 -9971174.566 10 0 60588 18900.00000 0 15683746.321 -15493100.305 -12737374.626 10 0 60588 19800.00000 0 14841163.142 -13977805.153 -15254776.361 10 0 60588 20700.00000 0 13992732.681 -12138194.945 -17474286.737 10 0 60588 21600.00000 0 13192094.524 -10005168.385 -19352689.997 10 0 60588 22500.00000 0 12487378.019 -7620775.407 -20853494.254 10 0 60588 23400.00000 0 11919097.907 -5036692.816 -21947639.444 10 0 60588 24300.00000 0 11518395.615 -2312300.750 -22614053.255 10 0 60588 25200.00000 0 11305700.128 487558.344 -22840045.171 10 0 60588 26100.00000 0 11289863.847 3295043.530 -22621532.409 10 0 60588 27000.00000 0 11467808.118 6041898.588 -21963095.149 10 0 60588 27900.00000 0 11824691.247 8662046.882 -20877861.868 10 0 60588 28800.00000 0 12334589.538 11094090.413 -19387228.975 10 0 60588 29700.00000 0 12961660.438 13283610.351 -17520421.962 10 0 60588 30600.00000 0 13661736.780 15185175.302 -15313908.149 10 0 60588 31500.00000 0 14384283.492 16763976.190 -12810673.673 10 0 60588 32400.00000 0 15074633.374 17997022.573 -10059379.643 10 0 60588 33300.00000 0 15676407.497 18873853.651 -7113414.307 10 0 60588 34200.00000 0 16134018.539 19396737.311 -4029859.765 10 0 60588 35100.00000 0 16395152.438 19580351.734 -868393.026 10 0 60588 36000.00000 0 16413125.030 19450965.195 2309857.933 10 0 60588 36900.00000 0 16149015.837 19045150.131 5443481.821 10 0 60588 37800.00000 0 15573490.583 18408086.344 8471953.968 10 0 60588 38700.00000 0 14668236.884 17591524.727 11336787.358 10 0 60588 39600.00000 0 13426953.510 16651496.464 13982644.013 10 0 60588 40500.00000 0 11855851.719 15645862.767 16358386.871 10 0 60588 41400.00000 0 9973647.006 14631806.459 18418053.459 10 0 60588 42300.00000 0 7811040.161 13663369.006 20121733.950 10 0 60588 43200.00000 0 5409707.170 12789134.678 21436337.842 10 0 60588 44100.00000 0 2820837.301 12050157.613 22336235.248 10 0 60588 45000.00000 0 103277.141 11478217.900 22803760.698 10 0 60588 45900.00000 0 -2678645.533 11094479.573 22829569.477 10 0 60588 46800.00000 0 -5457530.823 10908607.292 22412838.786 10 0 60588 47700.00000 0 -8165451.432 10918379.980 21561308.422 10 0 60588 48600.00000 0 -10736529.531 11109819.357 20291158.331 10 0 60588 49500.00000 0 -13109440.163 11457830.111 18626723.150 10 0 60588 50400.00000 0 -15229737.588 11927327.053 16600046.891 10 0 60588 51300.00000 0 -17051907.475 12474803.856 14250284.054 10 0 60588 52200.00000 0 -18541058.392 13050278.946 11622956.660 10 0 60588 53100.00000 0 -19674180.425 13599537.338 8769080.070 10 0 60588 54000.00000 0 -20440916.576 14066573.843 5744173.564 10 0 60588 54900.00000 0 -20843812.937 14396133.521 2607174.705 10 0 60588 55800.00000 0 -20898035.853 14536240.192 -580720.827 10 0 60588 56700.00000 0 -20630567.288 14440603.585 -3757270.040 10 0 60588 57600.00000 0 -20078912.384 14070800.371 -6860418.638 10 0 60588 58500.00000 0 -19289374.576 13398133.730 -9829535.764 10 0 60588 59400.00000 0 -18314972.729 12405089.915 -12606620.971 10 0 60588 60300.00000 0 -17213090.374 11086327.814 -15137457.454 10 0 60588 61200.00000 0 -16042958.869 9449157.895 -17372686.914 10 0 60588 62100.00000 0 -14863083.197 7513489.306 -19268783.480 10 0 60588 63000.00000 0 -13728721.281 5311246.978 -20788906.720 10 0 60588 63900.00000 0 -12689524.760 2885283.620 -21903616.747 10 0 60588 64800.00000 0 -11787441.566 287833.025 -22591437.876 10 0 60588 65700.00000 0 -11054968.626 -2421429.482 -22839260.799 10 0 60588 66600.00000 0 -10513827.442 -5177637.255 -22642576.865 10 0 60588 67500.00000 0 -10174116.584 -7913198.440 -22005541.684 10 0 60588 68400.00000 0 -10033974.538 -10560374.743 -20940868.733 10 0 60588 69300.00000 0 -10079764.467 -13053865.563 -19469556.960 10 0 60588 70200.00000 0 -10286770.399 -15333290.713 -17620459.507 10 0 60588 71100.00000 0 -10620372.972 -17345469.844 -15429703.463 10 0 60588 72000.00000 0 -11037653.066 -19046405.704 -12939973.197 10 0 60588 72900.00000 0 -11489354.143 -20402891.141 -10199672.089 10 0 60588 73800.00000 0 -11922119.635 -21393675.652 -7261979.393 10 0 60588 74700.00000 0 -12280910.792 -22010145.717 -4183820.721 10 0 60588 75600.00000 0 -12511503.371 -22256493.211 -1024771.855 10 0 60588 76500.00000 0 -12562958.779 -22149367.300 2154083.472 10 0 60588 77400.00000 0 -12389966.664 -21717026.240 5291320.558 10 0 60588 78300.00000 0 -11954961.593 -20998025.804 8326344.056 10 0 60588 79200.00000 0 -11229925.889 -20039499.793 11200540.429 10 0 60588 80100.00000 0 -10197803.680 -18895104.424 13858391.737 10 0 60588 81000.00000 0 -8853467.106 -17622711.853 16248530.893 10 0 60588 81900.00000 0 -7204193.799 -16281948.045 18324719.585 10 0 60588 82800.00000 0 -5269634.541 -14931676.416 20046731.413 10 0 60588 83700.00000 0 -3081270.608 -13627530.790 21381124.397 10 0 60588 84600.00000 0 -681380.835 -12419599.245 22301888.738 10 0 60588 85500.00000 0 1878441.541 -11350354.472 22790957.649 10 0 60589 0.00000 0 4539163.682 -10452916.555 22838571.190 10 0 60589 900.00000 0 7236506.439 -9749720.282 22443485.203 10 0 60589 1800.00000 0 9903364.509 -9251644.491 21613019.961 10 0 60589 2700.00000 0 12472360.211 -8957639.490 20362945.843 10 0 60589 3600.00000 0 14878423.077 -8854871.021 18717205.807 10 0 60589 4500.00000 0 17061290.311 -8919376.127 16707477.824 10 0 60589 5400.00000 0 18967823.875 -9117205.266 14372583.306 10 0 60589 6300.00000 0 20554046.827 -9406004.223 11757750.932 10 0 60589 7200.00000 0 21786812.434 -9736970.130 8913748.522 10 0 60589 8100.00000 0 22645034.411 -10057099.371 5895898.843 10 0 60589 9000.00000 0 23120424.791 -10311631.788 2762998.176 10 0 60589 9900.00000 0 23217706.695 -10446586.397 -423840.728 10 0 60589 10800.00000 0 22954291.815 -10411279.092 -3602397.551 10 0 60589 11700.00000 0 22359435.613 -10160712.989 -6710579.773 10 0 60589 12600.00000 0 21472906.077 -9657737.137 -9687658.093 10 0 60589 13500.00000 0 20343223.227 -8874879.195 -12475475.362 10 0 60589 14400.00000 0 19025545.337 -7795771.781 -15019603.049 10 0 60589 15300.00000 0 17579293.249 -6416109.987 -17270420.512 10 0 60589 16200.00000 0 16065615.352 -4744098.124 -19184094.384 10 0 60589 17100.00000 0 14544802.331 -2800366.050 -20723437.957 10 0 60589 18000.00000 0 13073762.409 -617358.540 -21858633.421 10 0 60589 18900.00000 0 11703664.558 1761776.167 -22567803.218 10 0 60589 19800.00000 0 10477849.094 4284751.164 -22837420.324 10 0 60589 20700.00000 0 9430092.955 6892092.453 -22662550.849 10 0 60589 21600.00000 0 8583301.073 9519394.768 -22046926.019 10 0 60589 22500.00000 0 7948676.640 12099786.807 -21002844.036 10 0 60589 23400.00000 0 7525402.390 14566502.814 -19550905.684 10 0 60589 24300.00000 0 7300843.293 16855453.703 -17719590.616 10 0 60589 25200.00000 0 7251259.113 18907691.583 -15544684.133 10 0 60589 26100.00000 0 7342994.106 20671666.510 -13068566.886 10 0 60589 27000.00000 0 7534091.477 22105183.522 -10339382.188 10 0 60589 27900.00000 0 7776262.954 23176980.763 -7410097.624 10 0 60589 28800.00000 0 8017129.487 23867865.458 -4337479.346 10 0 60589 29700.00000 0 8202638.377 24171362.888 -1180998.717 10 0 60589 30600.00000 0 8279555.265 24093853.642 1998308.102 10 0 60589 31500.00000 0 8197926.783 23654195.322 5139006.360 10 0 60589 32400.00000 0 7913411.191 22882845.912 8180433.333 10 0 60589 33300.00000 0 7389380.030 21820526.191 11063852.108 10 0 60589 34200.00000 0 6598703.369 20516477.134 13733567.726 10 0 60589 35100.00000 0 5525144.193 19026384.508 16137985.751 10 0 60589 36000.00000 0 4164303.415 17410056.194 18230594.432 10 0 60589 36900.00000 0 2524075.202 15728947.639 19970852.894 10 0 60589 37800.00000 0 624592.070 14043636.921 21324969.453 10 0 60589 38700.00000 0 -1502340.194 12411352.990 22266555.842 10 0 60589 39600.00000 0 -3814297.023 10883658.638 22777145.032 10 0 60589 40500.00000 0 -6259738.327 9504383.668 22846562.499 10 0 60589 41400.00000 0 -8779901.365 8307893.902 22473142.928 10 0 60589 42300.00000 0 -11311007.820 7317768.306 21663786.853 10 0 60589 43200.00000 0 -13786696.163 6545940.136 20433854.292 10 0 60589 44100.00000 0 -16140580.444 5992339.144 18806895.218 10 0 60589 45000.00000 0 -18308830.366 5645051.390 16814219.719 10 0 60589 45900.00000 0 -20232665.687 5480991.517 14494313.821 10 0 60589 46800.00000 0 -21860660.439 5467060.777 11892110.159 10 0 60589 47700.00000 0 -23150759.454 5561743.123 9058126.018 10 0 60589 48600.00000 0 -24071921.012 5717072.574 6047484.450 10 0 60589 49500.00000 0 -24605314.604 5880888.486 2918837.166 10 0 60589 50400.00000 0 -24745021.409 5999282.242 -266789.321 10 0 60589 51300.00000 0 -24498206.248 6019129.937 -3447200.621 10 0 60589 52200.00000 0 -23884752.551 5890601.247 -6560269.151 10 0 60589 53100.00000 0 -22936375.273 5569535.251 -9545170.183 10 0 60589 54000.00000 0 -21695249.531 5019579.501 -12343592.707 10 0 60589 54900.00000 0 -20212213.911 4213998.839 -14900899.073 10 0 60589 55800.00000 0 -18544625.974 3137074.936 -17167208.593 10 0 60589 56700.00000 0 -16753962.433 1785035.501 -19098382.330 10 0 60589 57600.00000 0 -14903267.231 166472.778 -20656888.790 10 0 60589 58500.00000 0 -13054556.864 -1697766.781 -21812533.241 10 0 60589 59400.00000 0 -11266293.399 -3775216.795 -22543036.750 10 0 60589 60300.00000 0 -9591031.973 -6022921.892 -22834454.571 10 0 60589 61200.00000 0 -8073341.315 -8389016.893 -22681427.095 10 0 60589 62100.00000 0 -6748083.358 -10814687.068 -22087260.251 10 0 60589 63000.00000 0 -5639122.120 -13236426.639 -21063835.681 10 0 60589 63900.00000 0 -4758513.347 -15588500.618 -19631354.388 10 0 60589 64800.00000 0 -4106205.800 -17805507.167 -17817920.668 10 0 60589 65700.00000 0 -3670263.419 -19824934.090 -15658975.980 10 0 60589 66600.00000 0 -3427595.840 -21589603.859 -13196595.075 10 0 60589 67500.00000 0 -3345163.676 -23049906.793 -10478658.970 10 0 60589 68400.00000 0 -3381605.537 -24165731.209 -7557921.350 10 0 60589 69300.00000 0 -3489216.652 -24908012.226 -4490986.718 10 0 60589 70200.00000 0 -3616194.825 -25259836.908 -1337219.884 10 0 60589 71100.00000 0 -3709058.877 -25217061.781 1842392.622 10 0 60589 72000.00000 0 -3715138.046 -24788418.853 4986408.011 10 0 60589 72900.00000 0 -3585028.301 -23995107.105 8034098.162 10 0 60589 73800.00000 0 -3274913.172 -22869887.409 10926604.745 10 0 60589 74700.00000 0 -2748652.495 -21455718.816 13608057.714 10 0 60589 75600.00000 0 -1979552.068 -19803992.701 16026637.180 10 0 60589 76500.00000 0 -951740.265 -17972437.325 18135559.769 10 0 60589 77400.00000 0 338906.417 -16022778.661 19893971.839 10 0 60589 78300.00000 0 1884328.636 -14018253.061 21267733.562 10 0 60589 79200.00000 0 3664360.282 -12021073.383 22230079.560 10 0 60589 80100.00000 0 5647314.656 -10089952.217 22762143.717 10 0 60589 81000.00000 0 7791059.298 -8277783.742 22853337.851 10 0 60589 81900.00000 0 10044538.062 -6629579.655 22501576.180 10 0 60589 82800.00000 0 12349680.388 -5180744.659 21713339.906 10 0 60589 83700.00000 0 14643621.430 -3955763.542 20503578.870 10 0 60589 84600.00000 0 16861143.202 -2967355.327 18895449.971 10 0 60589 85500.00000 0 18937236.836 -2216131.010 16919895.050 10 0 60590 0.00000 0 20809679.896 -1690770.625 14615064.275 10 0 60590 900.00000 0 22421522.037 -1368713.373 12025592.773 10 0 60590 1800.00000 0 23723371.668 -1217333.587 9201746.042 10 0 60590 2700.00000 0 24675389.520 -1195552.758 6198445.551 10 0 60590 3600.00000 0 25248900.795 -1255820.334 3074196.153 10 0 60590 4500.00000 0 25427556.823 -1346378.520 -110064.540 10 0 60590 5400.00000 0 25207994.925 -1413713.720 -3292171.045 10 0 60590 6300.00000 0 24599966.940 -1405088.558 -6409963.906 10 0 60590 7200.00000 0 23625929.948 -1271044.476 -9402526.252 10 0 60590 8100.00000 0 22320116.018 -967765.823 -12211396.470 10 0 60590 9000.00000 0 20727120.726 -459202.298 -14781730.924 10 0 60590 9900.00000 0 18900071.115 281142.808 -17063391.829 10 0 60590 10800.00000 0 16898451.985 1268836.387 -19011937.381 10 0 60590 11700.00000 0 14785683.947 2507610.945 -20589493.740 10 0 60590 12600.00000 0 12626556.991 3988970.635 -21765491.407 10 0 60590 13500.00000 0 10484628.896 5692324.531 -22517251.924 10 0 60590 14400.00000 0 8419698.545 7585641.041 -22830414.331 10 0 60590 15300.00000 0 6485460.242 9626595.029 -22699194.437 10 0 60590 16200.00000 0 4727436.482 11764158.422 -22126473.596 10 0 60590 17100.00000 0 3181274.113 13940566.588 -21123717.162 10 0 60590 18000.00000 0 1871472.792 16093577.332 -19710726.167 10 0 60590 18900.00000 0 810595.945 18158927.601 -17915228.881 10 0 60590 19800.00000 0 -1006.082 20072885.279 -15772321.778 10 0 60590 20700.00000 0 -574952.560 21774790.034 -13323772.108 10 0 60590 21600.00000 0 -934082.092 23209478.204 -10617196.559 10 0 60590 22500.00000 0 -1111229.906 24329492.005 -7705132.487 10 0 60590 23400.00000 0 -1147586.371 25096982.623 -4644019.979 10 0 60590 24300.00000 0 -1090707.382 25485229.736 -1493114.264 10 0 60590 25200.00000 0 -992261.135 25479715.992 1686650.987 10 0 60590 26100.00000 0 -905606.323 25078713.336 4833828.277 10 0 60590 27000.00000 0 -883303.225 24293358.131 7887627.431 10 0 60590 27900.00000 0 -974661.646 23147212.809 10789071.975 10 0 60590 28800.00000 0 -1223427.817 21675332.655 13482119.922 10 0 60590 29700.00000 0 -1665706.557 19922876.264 15914728.889 10 0 60590 30600.00000 0 -2328205.285 17943316.582 18039846.618 10 0 60590 31500.00000 0 -3226873.417 15796325.517 19816309.188 10 0 60590 32400.00000 0 -4365994.651 13545418.226 21209630.835 10 0 60590 33300.00000 0 -5737771.381 11255452.891 22192670.978 10 0 60590 34200.00000 0 -7322420.601 8990087.822 22746165.962 10 0 60590 35100.00000 0 -9088779.917 6809299.635 22859115.104 10 0 60590 36000.00000 0 -10995401.459 4767064.148 22529012.850 10 0 60590 36900.00000 0 -12992091.382 2909295.467 21761921.267 10 0 60590 37800.00000 0 -15021833.955 1272128.694 20572379.662 10 0 60590 38700.00000 0 -17023022.897 -119381.974 18983150.929 10 0 60590 39600.00000 0 -18931909.001 -1252094.597 17024807.153 10 0 60590 40500.00000 0 -20685163.255 -2125104.421 14735160.153 10 0 60590 41400.00000 0 -22222448.663 -2749547.471 12158545.831 10 0 60590 42300.00000 0 -23488892.555 -3147889.852 9344974.561 10 0 60590 43200.00000 0 -24437354.334 -3352731.822 6349162.974 10 0 60590 44100.00000 0 -25030391.302 -3405176.731 3229465.599 10 0 60590 45000.00000 0 -25241837.553 -3352834.127 46727.569 10 0 60590 45900.00000 0 -25057926.825 -3247542.634 -3136918.140 10 0 60590 46800.00000 0 -24477909.771 -3142910.930 -6259283.751 10 0 60590 47700.00000 0 -23514137.890 -3091783.476 -9259363.693 10 0 60590 48600.00000 0 -22191609.607 -3143741.267 -12078549.040 10 0 60590 49500.00000 0 -20546997.396 -3342746.455 -14661793.215 10 0 60590 50400.00000 0 -18627197.500 -3725033.424 -16958704.068 10 0 60590 51300.00000 0 -16487464.581 -4317337.945 -18924539.252 10 0 60590 52200.00000 0 -14189211.392 -5135541.018 -20521084.408 10 0 60590 53100.00000 0 -11797567.692 -6183785.713 -21717396.525 10 0 60590 54000.00000 0 -9378802.471 -7454104.526 -22490398.258 10 0 60590 54900.00000 0 -6997718.650 -8926572.581 -22825312.455 10 0 60590 55800.00000 0 -4715129.835 -10569979.325 -22715929.771 10 0 60590 56700.00000 0 -2585524.340 -12342989.308 -22164705.891 10 0 60590 57600.00000 0 -655012.880 -14195742.045 -21182688.337 10 0 60590 58500.00000 0 1040356.281 -16071822.718 -19789276.273 10 0 60590 59400.00000 0 2475847.111 -17910520.286 -18011819.756 10 0 60590 60300.00000 0 3638801.494 -19649278.080 -15885067.903 10 0 60590 61200.00000 0 4528892.302 -21226234.390 -13450477.969 10 0 60590 62100.00000 0 5157856.782 -22582747.386 -10755399.754 10 0 60590 63000.00000 0 5548724.668 -23665799.875 -7852151.732 10 0 60590 63900.00000 0 5734576.192 -24430184.761 -4797007.058 10 0 60590 64800.00000 0 5756884.262 -24840381.538 -1649108.940 10 0 60590 65700.00000 0 5663511.909 -24872047.132 1530664.144 10 0 60590 66600.00000 0 5506449.829 -24513060.415 4680862.213 10 0 60590 67500.00000 0 5339389.182 -23764078.090 7740635.124 10 0 60590 68400.00000 0 5215231.175 -22638579.679 10650890.233 10 0 60590 69300.00000 0 5183637.233 -21162400.022 13355415.432 10 0 60590 70200.00000 0 5288721.688 -19372768.548 15801947.520 10 0 60590 71100.00000 0 5566982.975 -17316894.358 17943166.860 10 0 60590 72000.00000 0 6045559.577 -15050154.545 19737600.575 10 0 60590 72900.00000 0 6740883.802 -12633959.089 21150418.073 10 0 60590 73800.00000 0 7657790.437 -10133378.751 22154104.462 10 0 60590 74700.00000 0 8789118.955 -7614632.144 22728999.218 10 0 60590 75600.00000 0 10115827.972 -5142534.020 22863689.603 10 0 60590 76500.00000 0 11607619.883 -2778008.778 22555250.533 10 0 60590 77400.00000 0 13224052.567 -575771.048 21809324.979 10 0 60590 78300.00000 0 14916094.922 1417731.075 20640041.575 10 0 60590 79200.00000 0 16628064.189 3166024.768 19069768.884 10 0 60590 80100.00000 0 18299866.572 4643901.513 17128708.715 10 0 60590 81000.00000 0 19869449.195 5838231.731 14854334.017 10 0 60590 81900.00000 0 21275361.571 6748269.753 12290680.074 10 0 60590 82800.00000 0 22459319.058 7385435.080 9487501.060 10 0 60590 83700.00000 0 23368659.593 7772578.121 6499307.190 10 0 60590 84600.00000 0 23958588.673 7942760.713 3384300.768 10 0 60590 85500.00000 0 24194115.565 7937602.914 203232.240 99